Find Starlink 30790

NORAD ID: 58127 Int'l Des: 2023-162 Owner: SPXS Country: US Constellation: starlink operational
LEOCIRCULAR

Current View

Loading 3D Globe...

About Starlink 30790

Description loading...

Upcoming Passes

Passes for default location (London). Set your location on the main map for personalized predictions.

Altitude History

Loading altitude history...

Two-Line Element Set

1 58127U 23162K 26146.16792036 .00032630 00000-0 15680-2 0 9996
2 58127 42.9998 57.7669 0016210 185.1565 174.9118 15.18147087144122
Epoch: May 26, 2026 • Age: 11 hours

Current Status

Altitude 525.5 km
Velocity 7.60 km/s
Sub-Earth Point -26.90°S, 85.22°W
Launch Date Oct 22, 2023
Age 2.5 years
Type internet

Technical Details

Classification Payload
Mass 730.00 kg
Dry Mass 700.00 kg
Total Mass 730.00 kg
Length 0.30 m
Diameter 4.10 m
Span 29.00 m
Shape Box + pan
Manufacturer SPXS
Bus Type Starlink V2M
Phase Status In Orbit
Owner/State SPXS/US

Most Searched